Tracking 32938 objects as of 13-Jan-2026
HD Live streaming from Space Station
objects crossing your sky now

STARLINK 1060

Track STARLINK 1060 now!
10-day predictions
STARLINK 1060 is classified as:


NORAD ID: 44765
Int'l Code: 2019-074BE
Perigee: 309.4 km
Apogee: 314.4 km
Inclination: 53.0 °
Period: 90.6 minutes
Semi major axis: 6682 km
RCS: Unknown
Launch date: November 11, 2019
Source: United States (US)
Launch site: AIR FORCE EASTERN TEST RANGE (AFETR)
Your satellite tracking list
Your tracking list is empty




NASA's NSSDC Master Catalog

Two Line Element Set (TLE):
1 44765U 19074BE  26013.33334491  .00241670  00000-0  80383-3 0  9994
2 44765  53.0427  43.5134 0003709 348.2581  77.7302 15.89110049  6009
Source of the keplerian elements: AFSPC